Location: Unspecified
(0.0000°N, 0.0000°E)
Time: 11:35:52
(UTC+00:00)

deb Explorer IX - Visible Passes

Search period start: 02 September 2014 00:00
Search period end: 12 September 2014 00:00
Orbit: 559 x 1218 km, 38.8° (Epoch: 31 August)

Date Brightness Start Highest point End Pass type
(mag) Time Alt. Az. Time Alt. Az. Time Alt. Az.
02 Sep ? 19:31:31 10° SSW 19:38:12 35° SE 19:38:12 35° SE visible
02 Sep ? 21:19:40 10° WSW 21:20:59 16° WSW 21:20:59 16° WSW visible
03 Sep ? 19:28:46 10° SSW 19:35:52 47° SE 19:37:03 44° ESE visible
03 Sep ? 21:17:38 10° WSW 21:19:50 20° W 21:19:50 20° W visible
04 Sep ? 19:26:09 10° SW 19:33:27 62° SE 19:36:01 43° E visible
04 Sep ? 21:15:48 10° W 21:18:48 22° W 21:18:48 22° W visible
05 Sep ? 19:23:40 10° SW 19:31:01 81° SE 19:35:04 32° NE visible
05 Sep ? 21:14:12 10° W 21:17:52 21° WNW 21:17:52 21° WNW visible
06 Sep ? 19:21:19 10° SW 19:28:35 78° NW 19:34:10 21° NE visible
06 Sep ? 21:12:57 10° WNW 21:16:58 18° NW 21:16:58 18° NW visible
07 Sep ? 19:19:06 10° WSW 19:26:10 59° NW 19:33:15 13° NE visible
07 Sep ? 21:12:17 10° WNW 21:15:45 13° NW 21:16:02 13° NNW visible
08 Sep ? 19:17:03 10° WSW 19:23:46 44° NW 19:31:10 10° NNE visible
09 Sep ? 04:38:26 10° N 04:41:33 15° NE 04:44:25 10° ENE visible
09 Sep ? 19:15:11 10° W 19:21:25 33° NW 19:28:15 10° NNE visible
10 Sep ? 04:34:59 10° NNW 04:39:22 22° NE 04:43:14 10° E visible
10 Sep ? 19:13:33 10° W 19:19:07 24° NW 19:25:08 10° NNE visible
11 Sep ? 04:31:55 10° NNW 04:37:08 33° NE 04:41:35 10° ESE visible
11 Sep ? 19:12:16 10° WNW 19:16:51 18° NW 19:21:45 10° N visible
